Weather History for Kemmerer, WY

Change the Weather History Date:

Sunday, September 8, 2013

  Actual Average Record
Temperature  
Mean Temperature 55 °F -  
Max Temperature 62 °F 72 °F 84 °F (1979)
Min Temperature 48 °F 37 °F 18 °F (1976)
Degree Days  
Heating Degree Days 10    
Growing Degree Days 5 (Base 50)    
Moisture  
Dew Point 47 °F    
Average Humidity 79    
Maximum Humidity 94    
Minimum Humidity 55    
Precipitation  
Precipitation 0.03 in - - ()
Sea Level Pressure  
Sea Level Pressure 30.24 in    
Wind  
Wind Speed 5 mph (West)    
Max Wind Speed 14 mph    
Max Gust Speed 16 mph    
Visibility 10 miles    
Events Rain    
Averages and records for this station are not official NWS values.
T = Trace of Precipitation, MM = Missing Value Source: NWS Daily Summary

Daily Weather History Graph

Daily Weather History Graph

Search for Another Location

Airport:

Trip Planner

Search our weather history database for the weather conditions in past years. The results will help you decide how hot, cold, wet, or windy it might be!

Date:

Astronomy

Sep. 08, 2013 Rise Set
Actual Time 6:55 AM MDT 7:43 PM MDT
Civil Twilight 6:27 AM MDT 8:11 PM MDT
Nautical Twilight 5:53 AM MDT 8:44 PM MDT
Astronomical Twilight 5:18 AM MDT 9:19 PM MDT
Moon 10:20 AM MDT (9/8) 9:16 PM MDT (9/8)
Length of Visible Light 13h 44m
Length of Day
12h 47m
Waxing Crescent, 11% of the Moon is Illuminated
Sep 8
Waxing Crescent
Sep 12
First Quarter
Sep 19
Full
Sep 26
Last Quarter
Oct 4
New

Hourly Weather History & Observations

Time (MDT) Temp. Dew Point Humidity Pressure Visibility Wind Dir Wind Speed Gust Speed Precip Events Conditions
12:15 AM 53.6 °F 46.4 °F 77% 30.29 in 10.0 mi Calm Calm - N/A   Clear
12:35 AM 53.6 °F 46.4 °F 77% 30.29 in 10.0 mi Calm Calm - N/A   Clear
12:55 AM 51.8 °F 46.4 °F 82% 30.30 in 10.0 mi Calm Calm - N/A   Clear
1:15 AM 51.8 °F 46.4 °F 82% 30.28 in 10.0 mi Calm Calm - N/A   Clear
1:35 AM 51.8 °F 46.4 °F 82% 30.29 in 10.0 mi Calm Calm - N/A   Clear
1:55 AM 51.8 °F 48.2 °F 88% 30.29 in 10.0 mi Calm Calm - N/A   Clear
2:15 AM 51.8 °F 48.2 °F 88% 30.29 in 10.0 mi Calm Calm - N/A   Clear
2:35 AM 50.0 °F 46.4 °F 87% 30.28 in 10.0 mi ESE 4.6 mph - N/A   Scattered Clouds
2:55 AM 51.8 °F 46.4 °F 82% 30.29 in 10.0 mi South 6.9 mph - N/A   Scattered Clouds
3:15 AM 51.8 °F 48.2 °F 88% 30.28 in 10.0 mi Calm Calm - N/A   Mostly Cloudy
3:35 AM 50.0 °F 46.4 °F 87% 30.28 in 10.0 mi Calm Calm - N/A   Mostly Cloudy
3:55 AM 50.0 °F 46.4 °F 87% 30.27 in 10.0 mi NNW 4.6 mph - N/A   Scattered Clouds
4:15 AM 48.2 °F 46.4 °F 93% 30.27 in 10.0 mi North 6.9 mph - N/A   Scattered Clouds
4:35 AM 48.2 °F 46.4 °F 93% 30.26 in 10.0 mi NNW 6.9 mph - N/A   Mostly Cloudy
4:55 AM 50.0 °F 46.4 °F 87% 30.26 in 10.0 mi NNW 8.1 mph - N/A   Overcast
5:15 AM 50.0 °F 48.2 °F 94% 30.26 in 10.0 mi NNW 8.1 mph - N/A   Overcast
5:35 AM 50.0 °F 46.4 °F 87% 30.25 in 10.0 mi North 9.2 mph - N/A   Overcast
5:55 AM 50.0 °F 46.4 °F 87% 30.25 in 10.0 mi NNW 13.8 mph - N/A   Mostly Cloudy
6:15 AM 50.0 °F 46.4 °F 87% 30.24 in 10.0 mi NNW 9.2 mph - N/A   Mostly Cloudy
6:35 AM 50.0 °F 46.4 °F 87% 30.24 in 10.0 mi NNW 5.8 mph - N/A   Mostly Cloudy
6:55 AM 50.0 °F 46.4 °F 87% 30.25 in 10.0 mi NW 8.1 mph - N/A   Mostly Cloudy
7:15 AM 51.8 °F 46.4 °F 82% 30.24 in 10.0 mi NW 9.2 mph - N/A   Overcast
7:35 AM 51.8 °F 46.4 °F 82% 30.25 in 10.0 mi WSW 6.9 mph - N/A   Overcast
7:55 AM 51.8 °F 48.2 °F 88% 30.25 in 10.0 mi WSW 8.1 mph - N/A   Mostly Cloudy
8:15 AM 51.8 °F 48.2 °F 88% 30.25 in 10.0 mi WSW 5.8 mph - N/A   Mostly Cloudy
8:35 AM 53.6 °F 48.2 °F 82% 30.25 in 10.0 mi West 9.2 mph - N/A   Mostly Cloudy
8:55 AM 53.6 °F 48.2 °F 82% 30.25 in 10.0 mi West 8.1 mph 16.1 mph N/A   Scattered Clouds
9:15 AM 53.6 °F 48.2 °F 82% 30.26 in 10.0 mi West 5.8 mph - N/A Rain Light Rain
9:35 AM 53.6 °F 50.0 °F 88% 30.27 in 10.0 mi WNW 6.9 mph - N/A   Light Drizzle
9:55 AM 53.6 °F 50.0 °F 88% 30.27 in 10.0 mi West 6.9 mph - N/A   Overcast
10:15 AM 53.6 °F 50.0 °F 88% 30.27 in 10.0 mi West 12.7 mph - N/A   Light Drizzle
10:35 AM 55.4 °F 50.0 °F 82% 30.27 in 10.0 mi West 8.1 mph - N/A   Mostly Cloudy
10:55 AM 55.4 °F 48.2 °F 77% 30.27 in 10.0 mi West 11.5 mph - N/A   Overcast
11:15 AM 53.6 °F 50.0 °F 88% 30.26 in 10.0 mi West 13.8 mph - N/A Rain Light Rain
11:35 AM 53.6 °F 50.0 °F 88% 30.26 in 10.0 mi West 12.7 mph - N/A Rain Light Rain
11:55 AM 53.6 °F 50.0 °F 88% 30.26 in 10.0 mi WNW 10.4 mph - 0.01 in Rain Rain
12:15 PM 53.6 °F 50.0 °F 88% 30.26 in 10.0 mi WNW 10.4 mph - 0.01 in Rain Light Rain
12:35 PM 53.6 °F 50.0 °F 88% 30.26 in 10.0 mi WNW 10.4 mph - 0.01 in   Light Drizzle
12:55 PM 55.4 °F 50.0 °F 82% 30.26 in 10.0 mi NW 8.1 mph - 0.01 in Rain Light Rain
1:15 PM 59.0 °F 48.2 °F 67% 30.25 in 10.0 mi NW 11.5 mph - N/A Rain Light Rain
1:35 PM 57.2 °F 46.4 °F 67% 30.25 in 10.0 mi NW 10.4 mph - N/A Rain Light Rain
1:55 PM 55.4 °F 46.4 °F 72% 30.25 in 10.0 mi WNW 9.2 mph - N/A   Light Drizzle
2:15 PM 55.4 °F 46.4 °F 72% 30.25 in 10.0 mi NW 4.6 mph - N/A   Drizzle
2:35 PM 55.4 °F 46.4 °F 72% 30.24 in 10.0 mi Calm Calm - N/A Rain Light Rain
2:55 PM 55.4 °F 48.2 °F 77% 30.23 in 10.0 mi East 3.5 mph - 0.01 in Rain Light Rain
3:15 PM 57.2 °F 46.4 °F 67% 30.22 in 10.0 mi East 4.6 mph - N/A   Overcast
3:35 PM 59.0 °F 44.6 °F 59% 30.22 in 10.0 mi Calm Calm - N/A   Overcast
3:55 PM 60.8 °F 44.6 °F 55% 30.21 in 10.0 mi Calm Calm - N/A   Overcast
4:15 PM 62.6 °F 46.4 °F 55% 30.22 in 10.0 mi Calm Calm - N/A   Mostly Cloudy
4:35 PM 60.8 °F 46.4 °F 59% 30.21 in 10.0 mi South 8.1 mph - N/A   Overcast
4:55 PM 60.8 °F 46.4 °F 59% 30.20 in 10.0 mi SSW 6.9 mph - N/A   Overcast
5:15 PM 60.8 °F 46.4 °F 59% 30.20 in 10.0 mi South 5.8 mph - N/A   Mostly Cloudy
5:35 PM 59.0 °F 46.4 °F 63% 30.19 in 10.0 mi South 6.9 mph - N/A   Scattered Clouds
5:55 PM 59.0 °F 46.4 °F 63% 30.19 in 10.0 mi South 8.1 mph - N/A   Mostly Cloudy
6:15 PM 59.0 °F 46.4 °F 63% 30.19 in 10.0 mi South 6.9 mph - N/A   Scattered Clouds
6:35 PM 57.2 °F 46.4 °F 67% 30.18 in 10.0 mi South 6.9 mph - N/A   Clear
6:55 PM 57.2 °F 46.4 °F 67% 30.18 in 10.0 mi South 8.1 mph - N/A   Clear
7:15 PM 57.2 °F 46.4 °F 67% 30.18 in 10.0 mi South 5.8 mph - N/A   Clear
7:35 PM 55.4 °F 46.4 °F 72% 30.18 in 10.0 mi South 5.8 mph - N/A   Clear
7:55 PM 55.4 °F 46.4 °F 72% 30.17 in 10.0 mi South 5.8 mph - N/A   Clear
8:15 PM 53.6 °F 46.4 °F 77% 30.17 in 10.0 mi SSW 4.6 mph - N/A   Clear
8:35 PM 53.6 °F 46.4 °F 77% 30.19 in 10.0 mi SSW 5.8 mph - N/A   Clear
8:55 PM 51.8 °F 46.4 °F 82% 30.19 in 10.0 mi WSW 3.5 mph - N/A   Scattered Clouds
9:15 PM 53.6 °F 46.4 °F 77% 30.19 in 10.0 mi WSW 4.6 mph - N/A   Scattered Clouds
9:35 PM 53.6 °F 48.2 °F 82% 30.19 in 10.0 mi WNW 3.5 mph - N/A   Scattered Clouds
9:55 PM 51.8 °F 48.2 °F 88% 30.19 in 10.0 mi NW 5.8 mph - N/A   Scattered Clouds
10:15 PM 51.8 °F 48.2 °F 88% 30.19 in 10.0 mi NNW 6.9 mph - N/A   Clear
10:35 PM 50.0 °F 46.4 °F 87% 30.18 in 10.0 mi Calm Calm - N/A   Clear
10:55 PM 51.8 °F 48.2 °F 88% 30.18 in 10.0 mi SSW 3.5 mph - N/A   Clear
11:15 PM 51.8 °F 48.2 °F 88% 30.17 in 10.0 mi SSW 5.8 mph - N/A   Clear
11:35 PM 51.8 °F 48.2 °F 88% 30.18 in 10.0 mi SW 3.5 mph - N/A   Clear
11:55 PM 51.8 °F 48.2 °F 88% 30.18 in 10.0 mi WSW 3.5 mph - N/A   Clear